EW8311 Weather Reports


time (UTC)temp
C
wind
direction
speed
KPH
gust
KPH
rain 1hr
cm
rain 24hr
cm
rain mn
cm
humidity
%
barometer
mb
20260905004513 33 329 8.0 14.5 0.00 0.00 0.00 31 1003.9
20260905003020 33 300 4.8 11.3 0.00 0.00 0.00 31 1003.8
20260905001510 33 321 6.4 17.7 0.00 0.00 0.00 32 1003.7
20260905000009 34 329 9.7 20.9 0.00 0.00 0.00 29 1003.6
20260904234508 34 296 8.0 17.7 0.00 0.00 0.00 28 1003.5
20260904233021 35 297 8.0 20.9 0.00 0.00 0.00 27 1003.7
20260904231508 34 311 9.7 20.9 0.00 0.00 0.00 27 1003.7
20260904230014 34 313 8.0 19.3 0.00 0.00 0.00 29 1003.8
20260904224505 35 337 6.4 19.3 0.00 0.00 0.00 31 1003.6
20260904223004 35 255 6.4 14.5 0.00 0.00 0.00 32 1003.9
20260904221502 35 293 6.4 14.5 0.00 0.00 0.00 32 1004.0
20260904220109 35 346 8.0 16.1 0.00 0.00 0.00 32 1004.2
20260904214559 34 327 4.8 12.9 0.00 0.00 0.00 32 1004.3
20260904213058 35 264 3.2 9.7 0.00 0.00 0.00 31 1004.6
20260904211555 34 276 1.6 8.0 0.00 0.00 0.00 30 1004.8
20260904210057 34 314 3.2 9.7 0.00 0.00 0.00 30 1005.0
20260904204549 33 329 0.0 12.9 0.00 0.00 0.00 34 1005.0
20260904203048 33 327 4.8 12.9 0.00 0.00 0.00 39 1005.4
20260904201555 33 295 9.7 12.9 0.00 0.00 0.00 38 1005.6
20260904200049 33 316 6.4 11.3 0.00 0.00 0.00 38 1005.8
20260904194541 32 281 1.6 8.0 0.00 0.00 0.00 42 1006.0
20260904193045 33 341 1.6 9.7 0.00 0.00 0.00 42 1006.2
20260904191541 32 207 3.2 11.3 0.00 0.00 0.00 41 1006.6
20260904190037 32 238 3.2 9.7 0.00 0.00 0.00 42 1006.7
20260904184541 32 283 3.2 8.0 0.00 0.00 0.00 45 1006.9
20260904183031 31 285 3.2 11.3 0.00 0.00 0.00 46 1007.1
20260904181532 30 285 4.8 9.7 0.00 0.00 0.00 51 1007.4
20260904180024 30 318 3.2 11.3 0.00 0.00 0.00 52 1007.7
20260904174526 29 299 1.6 8.0 0.00 0.00 0.00 53 1007.8
20260904173020 29 309 3.2 12.9 0.00 0.00 0.00 55 1007.9
20260904171525 29 304 1.6 14.5 0.00 0.00 0.00 57 1008.0
20260904170016 28 307 3.2 9.7 0.00 0.00 0.00 58 1008.1
20260904164514 28 302 3.2 9.7 0.00 0.00 0.00 60 1008.0
20260904163018 27 243 1.6 11.3 0.00 0.00 0.00 61 1008.0
20260904161515 27 243 1.6 4.8 0.00 0.00 0.00 61 1007.9
20260904160007 27 339 0.0 6.4 0.00 0.00 0.00 64 1007.9
20260904154509 26 266 0.0 4.8 0.00 0.00 0.00 65 1007.9
20260904153004 26 248 1.6 9.7 0.00 0.00 0.00 65 1007.9
20260904151502 26 312 0.0 8.0 0.00 0.00 0.00 68 1007.9
20260904150002 26 305 1.6 4.8 0.00 0.00 0.00 68 1007.8
20260904144502 25 302 0.0 3.2 0.00 0.00 0.00 70 1007.9
20260904143100 25 317 1.6 8.0 0.00 0.00 0.00 71 1007.7
20260904141602 24 266 0.0 1.6 0.00 0.00 0.00 74 1007.6
20260904140056 23 332 0.0 3.2 0.00 0.00 0.00 75 1007.5
20260904134601 23 332 0.0 3.2 0.00 0.00 0.00 77 1007.3
20260904133053 23 323 0.0 0.0 0.00 0.00 0.00 79 1007.0
20260904131552 23 323 0.0 0.0 0.00 0.00 0.00 77 1006.8
20260904130047 23 323 0.0 0.0 0.00 0.00 0.00 76 1006.6
20260904124555 23 323 0.0 0.0 0.00 0.00 0.00 72 1006.2
20260904123042 24 323 0.0 0.0 0.00 0.00 0.00 70 1006.0
20260904121539 25 323 0.0 1.6 0.00 0.00 0.00 67 1005.8
20260904120043 25 321 0.0 4.8 0.00 0.00 0.00 68 1005.8
20260904114542 25 276 0.0 0.0 0.00 0.00 0.00 69 1005.7
20260904113045 25 275 0.0 0.0 0.00 0.00 0.00 67 1005.8
20260904111535 25 310 3.2 6.4 0.00 0.00 0.00 67 1005.8
20260904110035 25 311 0.0 0.0 0.00 0.00 0.00 69 1005.8
20260904104534 25 311 0.0 0.0 0.00 0.00 0.00 67 1005.8
20260904103038 25 311 0.0 0.0 0.00 0.00 0.00 66 1005.8
20260904101531 25 311 0.0 0.0 0.00 0.00 0.00 66 1005.8
20260904100031 25 310 0.0 0.0 0.00 0.00 0.00 66 1005.8
20260904094534 25 316 0.0 3.2 0.00 0.00 0.00 67 1005.7
20260904093030 25 314 1.6 4.8 0.00 0.00 0.00 67 1005.6
20260904091529 25 304 0.0 0.0 0.00 0.00 0.00 67 1005.7
20260904090028 25 319 1.6 3.2 0.00 0.00 0.00 67 1005.7
20260904084527 26 326 0.0 3.2 0.00 0.00 0.00 65 1005.7
20260904083026 25 325 0.0 1.6 0.00 0.00 0.00 66 1005.7
20260904081523 26 321 0.0 0.0 0.00 0.00 0.00 65 1005.9
20260904080021 26 321 0.0 1.6 0.00 0.00 0.00 64 1005.9
20260904074524 26 321 1.6 3.2 0.00 0.00 0.00 63 1005.8
20260904073019 26 321 0.0 4.8 0.00 0.00 0.00 62 1005.8
20260904071516 26 316 1.6 3.2 0.00 0.00 0.00 63 1005.9
20260904070015 26 311 3.2 6.4 0.00 0.00 0.00 63 1006.0
20260904064513 26 313 3.2 6.4 0.00 0.00 0.00 63 1006.0
20260904063013 26 319 1.6 9.7 0.00 0.00 0.00 62 1006.0
20260904061512 26 314 1.6 8.0 0.00 0.00 0.00 61 1006.0
20260904060012 26 328 0.0 3.2 0.00 0.00 0.00 63 1005.9
20260904054512 25 319 1.6 4.8 0.00 0.00 0.00 66 1005.8
20260904053011 25 109 0.0 0.0 0.00 0.00 0.00 67 1005.8
20260904051516 26 108 0.0 3.2 0.00 0.00 0.00 65 1005.8
20260904050009 26 123 0.0 0.0 0.00 0.00 0.00 65 1005.8
20260904044511 26 124 0.0 0.0 0.00 0.00 0.00 64 1005.8
20260904043009 26 123 0.0 0.0 0.00 0.00 0.00 62 1005.8
20260904041510 27 123 0.0 0.0 0.00 0.00 0.00 63 1005.8
20260904040009 27 123 0.0 0.0 0.00 0.00 0.00 59 1005.8
20260904034507 27 93 0.0 0.0 0.00 0.00 0.00 57 1005.6
20260904033007 27 113 1.6 6.4 0.00 0.00 0.00 57 1005.5
20260904031505 27 113 0.0 0.0 0.00 0.00 0.00 57 1005.2
20260904030005 28 113 0.0 3.2 0.00 0.00 0.00 55 1005.1
20260904024505 28 279 0.0 6.4 0.00 0.00 0.00 55 1005.0
20260904023004 28 128 0.0 3.2 0.00 0.00 0.00 56 1004.6
20260904021504 28 108 0.0 0.0 0.00 0.00 0.00 56 1004.6
20260904020003 28 108 0.0 1.6 0.00 0.00 0.00 56 1004.5
20260904014502 28 108 0.0 6.4 0.00 0.00 0.00 54 1004.4
20260904013003 29 120 0.0 12.9 0.00 0.00 0.00 52 1004.3
20260904011504 31 193 4.8 11.3 0.00 0.00 0.00 48 1003.9
20260904010100 31 250 3.2 11.3 0.00 0.00 0.00 48 1003.6